Back to catalog

SL-8 R/B

AliveLEO
NORAD 13242·ROCKET BODY·🇷🇺 Russia

Launched Jun 1, 1982 from Plesetsk Cosmodrome

Loading…

Next Passes (next 24 hours)

TLE

FreshSource: Space-Track

Epoch: Sep 14, 2026, 08:07 UTC

1 13242U 82051B   26257.33866900  .00000176  00000-0  67441-4 0  9995
2 13242  74.0408 274.4025 0024455   2.3807 357.7459 14.37424326318076

Track SL-8 R/B in real time with AllMySat

Download on the App Store